When you browse on this site, cookies collect data to enhance your experience and personalize the content and advertising you see.
Visit our Privacy Policy to learn more. By continuing to use the site, you agree to this use of cookies and data.

Stündliche Wetter Bolshie Leskovichi

Heute, 25 September, Freitag

Zeit Temperatur Niederschläge Wind Luftdruck Luftfeuchtigkeit
00:00 +14°C° 0 mm 3 m/S 743 mmHg 85%
01:00 +15°C° 0 mm 2 m/S 743 mmHg 87%
02:00 +15°C° 0 mm 2 m/S 743 mmHg 91%
03:00 +15°C° 0 mm 2 m/S 743 mmHg 92%
04:00 +14°C° 0 mm 2 m/S 743 mmHg 93%
05:00 +14°C° 0 mm 2 m/S 743 mmHg 93%
06:00 +14°C° 0 mm 3 m/S 742 mmHg 91%
07:00 +16°C° 0 mm 3 m/S 742 mmHg 88%
08:00 +17°C° 0 mm 4 m/S 742 mmHg 84%
09:00 +18°C° 0 mm 4 m/S 742 mmHg 77%
10:00 +20°C° 0 mm 4 m/S 742 mmHg 71%
11:00 +22°C° 0 mm 4 m/S 742 mmHg 64%
12:00 +23°C° 0 mm 4 m/S 741 mmHg 60%
13:00 +23°C° 0 mm 5 m/S 741 mmHg 56%
14:00 +26°C° 0 mm 5 m/S 741 mmHg 52%
15:00 +25°C° 0 mm 5 m/S 740 mmHg 55%
16:00 +23°C° 0 mm 4 m/S 740 mmHg 59%
17:00 +23°C° 0 mm 4 m/S 739 mmHg 62%
18:00 +21°C° 0 mm 4 m/S 739 mmHg 66%
19:00 +20°C° 0 mm 4 m/S 739 mmHg 69%
20:00 +19°C° 0 mm 4 m/S 739 mmHg 72%
21:00 +19°C° 0 mm 4 m/S 739 mmHg 73%
22:00 +18°C° 0 mm 4 m/S 739 mmHg 74%
23:00 +17°C° 0 mm 5 m/S 738 mmHg 75%

Morgen, 26 September, Samstag

Zeit Temperatur Niederschläge Wind Luftdruck Luftfeuchtigkeit
00:00 +17°C° 0 mm 5 m/S 738 mmHg 76%
01:00 +17°C° 0 mm 5 m/S 738 mmHg 77%
02:00 +16°C° 0 mm 5 m/S 737 mmHg 78%
03:00 +16°C° 0 mm 5 m/S 737 mmHg 77%
04:00 +16°C° 0 mm 5 m/S 737 mmHg 77%
05:00 +16°C° 0 mm 5 m/S 737 mmHg 76%
06:00 +17°C° 0 mm 6 m/S 737 mmHg 74%
07:00 +17°C° 0 mm 7 m/S 737 mmHg 72%
08:00 +18°C° 0 mm 7 m/S 736 mmHg 71%
09:00 +20°C° 0 mm 8 m/S 737 mmHg 65%
10:00 +22°C° 0 mm 9 m/S 737 mmHg 59%
11:00 +23°C° 0 mm 9 m/S 737 mmHg 54%
12:00 +24°C° 0 mm 9 m/S 737 mmHg 52%
13:00 +26°C° 0 mm 9 m/S 736 mmHg 50%
14:00 +26°C° 0 mm 9 m/S 736 mmHg 49%
15:00 +24°C° 0 mm 8 m/S 736 mmHg 52%
16:00 +24°C° 0 mm 7 m/S 736 mmHg 56%
17:00 +23°C° 0 mm 6 m/S 736 mmHg 59%
18:00 +22°C° 0 mm 7 m/S 736 mmHg 59%
19:00 +22°C° 0 mm 7 m/S 736 mmHg 58%
20:00 +22°C° 0 mm 8 m/S 736 mmHg 58%
21:00 +21°C° 0 mm 8 m/S 736 mmHg 58%
22:00 +21°C° 0 mm 8 m/S 736 mmHg 58%
23:00 +21°C° 0 mm 7 m/S 736 mmHg 58%

übermorgen, 27 September, Sonntag

Zeit Temperatur Niederschläge Wind Luftdruck Luftfeuchtigkeit
00:00 +20°C° 0 mm 7 m/S 736 mmHg 59%
01:00 +20°C° 0 mm 7 m/S 736 mmHg 61%
02:00 +20°C° 0 mm 7 m/S 736 mmHg 63%
03:00 +20°C° 0.1 mm 8 m/S 736 mmHg 64%
04:00 +20°C° 0.1 mm 8 m/S 735 mmHg 64%
05:00 +19°C° 0.1 mm 9 m/S 735 mmHg 65%
06:00 +18°C° 0.4 mm 9 m/S 735 mmHg 71%
07:00 +17°C° 0.4 mm 9 m/S 735 mmHg 76%
08:00 +17°C° 0.4 mm 9 m/S 736 mmHg 82%
09:00 +17°C° 0.1 mm 9 m/S 736 mmHg 79%
10:00 +18°C° 0.1 mm 10 m/S 736 mmHg 76%
11:00 +18°C° 0.1 mm 10 m/S 737 mmHg 73%
12:00 +17°C° 1.2 mm 10 m/S 737 mmHg 78%
13:00 +15°C° 1.2 mm 9 m/S 738 mmHg 82%
14:00 +13°C° 1.2 mm 8 m/S 739 mmHg 86%
15:00 +12°C° 0.2 mm 7 m/S 739 mmHg 85%
16:00 +11°C° 0.2 mm 7 m/S 740 mmHg 84%
17:00 +10°C° 0.2 mm 6 m/S 741 mmHg 83%
18:00 +9°C° 0 mm 5 m/S 742 mmHg 85%
19:00 +10°C° 0 mm 4 m/S 743 mmHg 87%
20:00 +9°C° 0 mm 3 m/S 744 mmHg 89%
21:00 +9°C° 0 mm 3 m/S 745 mmHg 90%
22:00 +9°C° 0 mm 3 m/S 746 mmHg 92%
23:00 +9°C° 0 mm 3 m/S 746 mmHg 93%

28 September, Montag

Zeit Temperatur Niederschläge Wind Luftdruck Luftfeuchtigkeit
00:00 +8°C° 0 mm 3 m/S 747 mmHg 94%
01:00 +8°C° 0 mm 3 m/S 747 mmHg 94%
02:00 +8°C° 0 mm 3 m/S 747 mmHg 95%
03:00 +8°C° 0 mm 3 m/S 747 mmHg 94%
04:00 +8°C° 0 mm 3 m/S 748 mmHg 94%
05:00 +7°C° 0 mm 3 m/S 748 mmHg 94%
06:00 +8°C° 0 mm 3 m/S 748 mmHg 90%
07:00 +9°C° 0 mm 3 m/S 748 mmHg 86%
08:00 +9°C° 0 mm 3 m/S 749 mmHg 82%
09:00 +11°C° 0 mm 3 m/S 749 mmHg 76%
10:00 +13°C° 0 mm 3 m/S 749 mmHg 70%
11:00 +14°C° 0 mm 3 m/S 749 mmHg 63%
12:00 +15°C° 0 mm 4 m/S 749 mmHg 61%
13:00 +17°C° 0 mm 4 m/S 749 mmHg 59%
14:00 +18°C° 0 mm 4 m/S 749 mmHg 57%
15:00 +18°C° 0 mm 4 m/S 749 mmHg 60%
16:00 +18°C° 0 mm 3 m/S 748 mmHg 64%
17:00 +17°C° 0 mm 3 m/S 748 mmHg 68%
18:00 +17°C° 0 mm 4 m/S 748 mmHg 67%
19:00 +16°C° 0 mm 5 m/S 747 mmHg 67%
20:00 +15°C° 0 mm 5 m/S 747 mmHg 67%
21:00 +15°C° 0.1 mm 5 m/S 747 mmHg 68%
22:00 +15°C° 0.1 mm 5 m/S 746 mmHg 69%
23:00 +15°C° 0.1 mm 5 m/S 746 mmHg 70%

29 September, Dienstag

Zeit Temperatur Niederschläge Wind Luftdruck Luftfeuchtigkeit
00:00 +14°C° 0.3 mm 5 m/S 746 mmHg 71%
01:00 +14°C° 0.3 mm 4 m/S 746 mmHg 72%
02:00 +14°C° 0.3 mm 4 m/S 745 mmHg 73%
03:00 +14°C° 0.5 mm 5 m/S 745 mmHg 75%
04:00 +13°C° 0.5 mm 5 m/S 744 mmHg 78%
05:00 +13°C° 0.5 mm 5 m/S 744 mmHg 80%
06:00 +13°C° 0.3 mm 5 m/S 744 mmHg 79%
07:00 +13°C° 0.3 mm 5 m/S 744 mmHg 78%
08:00 +13°C° 0.3 mm 5 m/S 743 mmHg 76%
09:00 +13°C° 0.4 mm 5 m/S 743 mmHg 78%
10:00 +13°C° 0.4 mm 5 m/S 743 mmHg 79%
11:00 +14°C° 0.4 mm 5 m/S 743 mmHg 80%
12:00 +14°C° 1.1 mm 4 m/S 742 mmHg 82%
13:00 +13°C° 1.1 mm 4 m/S 742 mmHg 85%
14:00 +13°C° 1.1 mm 4 m/S 742 mmHg 88%
15:00 +13°C° 0.7 mm 3 m/S 742 mmHg 90%
16:00 +13°C° 0.7 mm 3 m/S 741 mmHg 91%
17:00 +14°C° 0.7 mm 3 m/S 741 mmHg 93%
18:00 +13°C° 0.5 mm 3 m/S 741 mmHg 94%
19:00 +13°C° 0.5 mm 3 m/S 740 mmHg 95%
20:00 +14°C° 0.5 mm 2 m/S 740 mmHg 96%
21:00 +14°C° 1.8 mm 4 m/S 740 mmHg 94%
22:00 +14°C° 1.8 mm 5 m/S 740 mmHg 93%
23:00 +14°C° 1.8 mm 7 m/S 739 mmHg 91%

30 September, Mittwoch

Zeit Temperatur Niederschläge Wind Luftdruck Luftfeuchtigkeit
00:00 +14°C° 0.1 mm 6 m/S 739 mmHg 91%
01:00 +14°C° 0.1 mm 5 m/S 739 mmHg 92%
02:00 +14°C° 0.1 mm 5 m/S 739 mmHg 92%
03:00 +13°C° 0 mm 4 m/S 739 mmHg 93%
04:00 +13°C° 0 mm 3 m/S 739 mmHg 93%
05:00 +13°C° 0 mm 3 m/S 739 mmHg 94%
06:00 +13°C° 0.1 mm 3 m/S 739 mmHg 94%
07:00 +13°C° 0.1 mm 3 m/S 739 mmHg 93%
08:00 +13°C° 0.1 mm 4 m/S 739 mmHg 93%
09:00 +13°C° 0.3 mm 4 m/S 739 mmHg 92%
10:00 +13°C° 0.3 mm 4 m/S 739 mmHg 91%
11:00 +13°C° 0.3 mm 4 m/S 739 mmHg 90%
12:00 +13°C° 0.2 mm 4 m/S 739 mmHg 89%
13:00 +14°C° 0.2 mm 4 m/S 740 mmHg 88%
14:00 +14°C° 0.2 mm 3 m/S 740 mmHg 87%
15:00 +14°C° 0.3 mm 3 m/S 740 mmHg 85%
16:00 +14°C° 0.3 mm 3 m/S 740 mmHg 84%
17:00 +16°C° 0.3 mm 3 m/S 740 mmHg 83%
18:00 +14°C° 0.1 mm 3 m/S 740 mmHg 86%
19:00 +13°C° 0.1 mm 3 m/S 741 mmHg 89%
20:00 +12°C° 0.1 mm 3 m/S 741 mmHg 92%
21:00 +12°C° 0 mm 3 m/S 741 mmHg 93%
22:00 +11°C° 0 mm 3 m/S 741 mmHg 94%
23:00 +11°C° 0 mm 3 m/S 741 mmHg 95%
Mehr zeigen